Flag for Haiti Weather past 2 weeks in Port-au-Prince, Haiti

Now
72 °F

Passing clouds.


Feels Like: 65 °F
Forecast: 72 / 89 °F
Wind: No wind

Location: Santiago

Current Time: Sep 22, 2014 at 6:52:32 AM

Latest Report: Sep 22, 2014 at 6:00 AM


Visibility: N/A

Pressure: 29.98 "Hg

Humidity: 100%

Dew point: 72 °F

Location of Port-au-PrinceLocation

Historic Weather in Port-au-Prince — Graph

°F

Port-au-Prince temperature yesterday

Maximum temperature yesterday: 90 °F (at 1:00 PM)
Minimum temperature yesterday: 73 °F (at 1:00 AM)
Average temperature yesterday: 79 °F

Past Weeks' High & Low Weather Summary

 TemperatureHumidityPressure
High91 °F (Sep 10, 3:00 PM)100% (Sep 9, 7:00 AM)30.07 "Hg (Sep 9, 7:00 AM)
Low70 °F (Sep 7, 5:00 AM)46% (Sep 13, 4:00 PM)29.86 "Hg (Sep 17, 4:00 PM)
Average79 °F82%29.97 "Hg
* Reported Sep 7 5:00 AM — Sep 22 5:00 AM, Port-au-Prince, Weather by CustomWeather, © 2014

Note: Actual official high and low records may vary slightly from our data, if they occured in-between our weather recording intervals... More about our weather records

Advertising

Port-au-Prince weather history for previous 24 hours

 ConditionsComfort  
Time TempWeatherWind HumidityBarometerVisibility
5:00 AM
Sep 22
72 °FPassing clouds.No wind100%29.98 "HgN/A
4:00 AM73 °FPassing clouds.No wind94%29.98 "HgN/A
3:00 AM73 °FPassing clouds.No wind94%29.95 "HgN/A
2:00 AM73 °FPassing clouds.5 mph94%29.98 "HgN/A
1:00 AM73 °FPassing clouds.No wind94%30.01 "HgN/A
12:00 AM73 °FPassing clouds.6 mph94%30.01 "HgN/A
11:00 PM
Sep 21
75 °FPassing clouds.7 mph89%30.01 "HgN/A
10:00 PM75 °FPassing clouds.6 mph83%30.01 "HgN/A
9:00 PM77 °FPassing clouds.6 mph83%30.01 "HgN/A
8:00 PM77 °FPassing clouds.12 mph83%29.98 "HgN/A
7:00 PM79 °FPassing clouds.9 mph74%29.98 "HgN/A
6:00 PM81 °FBroken clouds.12 mph70%29.98 "HgN/A
4:00 PM86 °FPartly sunny.9 mph62%29.95 "HgN/A
3:00 PM86 °FScattered clouds.15 mph59%29.95 "HgN/A
2:00 PM90 °FScattered clouds.21 mph55%29.98 "HgN/A
1:00 PM90 °FScattered clouds.25 mph55%30.01 "HgN/A
12:00 PM88 °FScattered clouds.13 mph59%30.01 "HgN/A
11:00 AM86 °FScattered clouds.12 mph62%30.04 "HgN/A
10:00 AM84 °FPassing clouds.12 mph70%30.04 "HgN/A
9:00 AM77 °FScattered clouds.7 mph89%30.01 "HgN/A
8:00 AM73 °FPassing clouds.No wind100%30.01 "HgN/A
7:00 AM73 °FScattered clouds.No wind100%29.98 "HgN/A
Weather by CustomWeather, © 2014

See weather overviewHow to use our weather pages